Regional Weather Roundup
Issued by NWS San Diego, CA

Home | Current Version | Previous Version | Text Only | Print | Product List | Glossary On
Versions: 1 2 3 4 5 6 7 8 9 10 11 12 13 14 15 16 17 18 19 20 21 22 23 24 25 26 27 28 29 30 31 32 33 34 35 36 37 38 39 40 41 42 43 44 45 46 47 48 49 50
000
ASUS46 KSGX 010310
RWRSGX

SAN DIEGO HOURLY WEATHER ROUNDUP
NATIONAL WEATHER SERVICE SAN DIEGO CA
800 PM PDT FRI OCT 31 2014

NOTE: "FAIR" INDICATES FEW OR NO CLOUDS BELOW 12,000 FEET WITH NO
SIGNIFICANT WEATHER AND/OR OBSTRUCTIONS TO VISIBILITY.

CAZ042-043-060-061-PZZ750-775-010400-

GREATER SAN DIEGO AREA

CITY           SKY/WX    TMP DP  RH WIND       PRES   REMARKS
LINDBERGH FLD  CLOUDY    68  60  75 SW7       29.89S
POINT LOMA       N/A     66  60  80 S2          N/A
NATIONAL CITY    N/A     68  63  83 SW5       29.89S
CHULA VISTA      N/A     67  63  85 CALM      29.82S
IMPERIAL BEACH CLOUDY    67  60  78 SW8       29.89S
BROWN FIELD    CLOUDY    66  60  81 W8        29.89S
MIRAMAR MCAS   CLOUDY    66  56  70 S3        29.88S
MONTGOMERY FLD CLOUDY    67  60  78 SW6       29.88S

$$

NORTH SAN DIEGO COUNTY

CITY           SKY/WX    TMP DP  RH WIND       PRES   REMARKS
CAMP PENDLETON CLOUDY    67  56  67 S5        29.87S
OCEANSIDE AP   CLOUDY    68  59  73 SW6       29.85F
OCEANSIDE HBR    N/A     68  63  83 S12       29.89S
VISTA            N/A     64  58  81 CALM      29.86R
CARLSBAD       CLOUDY    66  57  72 S3        29.86S
DEL MAR          N/A     66  62  85 CALM      29.90S
FALLBROOK        N/A     64  62  93 CALM      29.87S
ESCONDIDO        N/A     65  59  79 CALM      29.90R
SAN MARCOS       N/A     65  58  80 CALM      29.86S
POWAY            N/A     65  57  77 CALM      29.89S

$$

EAST SAN DIEGO COUNTY

CITY           SKY/WX    TMP DP  RH WIND       PRES   REMARKS
RAMONA         CLOUDY    61  54  77 CALM      29.89F
SANTEE LAKES     N/A     66  58  75 CALM      29.89S
LA MESA          N/A     66  60  81 CALM      29.82S
JAMUL            N/A     64  58  81 CALM      29.88S
DESCANSO N       N/A     55  51  86 CALM      29.78S
CAMPO            N/A     58  53  84 SW9       29.88F

$$

ORANGE COUNTY AND THE LOS ANGELES BASIN

CITY           SKY/WX    TMP DP  RH WIND       PRES   REMARKS
JOHN WAYNE AP  CLOUDY    69  60  73 CALM      29.85S
LAKE FOREST FR   N/A     64  54  69 CALM      29.76F
SANTA ANA        N/A     68  62  81 CALM      29.81F
HUNTINGTON BCH   N/A     66  60  81 CALM      29.87F
LOS ALAMITOS   CLOUDY    66  59  78 S3        29.85F
FULLERTON      CLOUDY    68  58  70 CALM      29.84F
LONG BEACH     CLOUDY    67  57  70 S5        29.84F
L.A. AP        CLOUDY    66  55  67 S7        29.85S
L.A. DOWNTOWN  CLOUDY    67  56  67 CALM      29.85S

$$

THE INLAND EMPIRE

CITY           SKY/WX    TMP DP  RH WIND       PRES   REMARKS
CORONA         CLOUDY    65  54  67 NW5       29.85F
CHINO          CLOUDY    66  54  65 W7        29.86F
ONTARIO        CLOUDY    65  51  60 W8        29.86S
SAN BERNARDINO CLOUDY    64  50  59 CALM      29.87S
RIVERSIDE AP   CLOUDY    66  52  60 VRB3      29.86S
RIV CYN CREST    N/A     65  60  84 CALM      29.84S
MORENO VALLEY    N/A     63  58  83 S1        29.06S
MARCH ARB      CLOUDY    64  54  69 S6        29.88S
HORSETHIEF CYN   N/A     64  49  58 SE6       29.88S
PERRIS           N/A     63  54  72 S6        29.87S
MENIFEE          N/A     64  56  75 S6        29.93R
HEMET EAST       N/A     61  50  68 CALM      29.87S
FRENCH VALLEY  CLOUDY    63  54  72 SW8       29.89S
TEMECULA         N/A     64  58  81 SW5       29.85S

$$

SAN BERNARDINO AND RIVERSIDE COUNTY MOUNTAINS

CITY           SKY/WX    TMP DP  RH WIND       PRES   REMARKS
BIG BEAR AP    CLOUDY    43  37  81 SW5       29.94S
PINE COVE        N/A     46  44  93 CALM      29.68S

$$

SOUTHERN DESERT INCLUDING THE COACHELLA VALLEY

CITY           SKY/WX    TMP DP  RH WIND       PRES   REMARKS
PALM SPRINGS   MOCLDY    70  52  52 NW20G30   29.76S
THOUSAND PALMS   N/A     73  52  47 N14       29.71F
PALM DESERT      N/A     74  53  47 CALM      29.11S
THERMAL        PTCLDY    74  53  48 N15       29.70F
BLYTHE         PTCLDY    81  54  39 S15       29.73S
IMPERIAL AP    PTCLDY    73  53  49 W13       29.74R
EL CENTRO NAS  PTCLDY    75  52  44 W20       29.74R
YUMA AZ        MOCLDY    76  56  49 S10       29.75S
MEXICALI       PTCLDY    75  61  60 SE10      29.74

$$

UPPER DESERT

CITY           SKY/WX    TMP DP  RH WIND       PRES   REMARKS
VICTORVILLE AP PTCLDY    59  48  67 S21G28    29.81F
HESPERIA         N/A     57  50  76 CALM      29.88F
APPLE VALLEY     N/A     59  48  68 S18G26    29.93F
PALMDALE       CLEAR     59  48  67 SW14G22   29.79F
LANCASTER      MOCLDY    59  48  67 SW12      29.81F
EDWARDS AFB    MOCLDY    59  48  67 SW15      29.76F
DAGGETT        CLOUDY    66  47  50 W10       29.76R
29 PALMS N     MOCLDY    68  47  46 SW15      29.83F
NEEDLES        MOCLDY    82  41  23 SW12      29.72F

$$

REGIONAL REPORTS

CITY           SKY/WX    TMP DP  RH WIND       PRES   REMARKS
SANTA BARBARA  CLOUDY    66  55  67 SE14      29.79F
SANDBERG       LGT RAIN  50  47  89 SW23G36   29.85S VSB 1/4
MT. WILSON       N/A     43  45 100 MISG        N/A
LAS VEGAS NV   CLOUDY    77  29  17 S12       29.70S
PHOENIX AZ     CLEAR     81  48  31 SW6       29.77R
TIJUANA        CLOUDY    66  54  63 SW5       29.91S
ENSENADA NW      N/A     67  32  26 CALM      29.87F

$$

OFFSHORE ISLANDS

CITY           SKY/WX    TMP DP  RH WIND       PRES   REMARKS
CATALINA ARPT  CLOUDY    58  51  78 SW12      29.89S
SAN NICOLAS IS CLOUDY   N/A N/A N/A S12       29.85S

$$

MARINE AND OFFSHORE BUOY REPORTS

STATION/POSITION SKY/WX   TEMP    WIND        PRES    SWELL
                          AIR SEA DIR/SP/G            HT/PER/DIR
                          (F)     (DEG/KT/KT) (MB)    (FT/S/D)
TANNER BANKS               67 67  210/ 14/ 16 1010.9F   3/280/10
S CLEMENTE BASIN           67 70  220/ 10/ 10 1011.5S   3/270/10
SAN NICOLAS IS.               65                N/A     2/200/12
SO. S. ROSA ISLA           63 66  210/ 16/ 19 1008.7F   3/10
W. S. BARBARA CH           59 63  280/ 12/ 14 1008.7R   3/290/ 9
M. S. BARBARA CH           65 68  190/ 10/ 14 1009.7F
S. MONICA BASIN            66 68  190/ 10/ 10 1010.9S   3/230/10
S PEDRO CHANNEL               69                N/A     2/250/11
DANA POINT                    70                N/A     2/200/14
CMP PENDLETON NS              69                N/A     2/220/14
OCEANSIDE OFFSHR              70                N/A     2/200/14
TORREY PINES OTR              71                N/A     2/230/11
LA JOLLA 1                 67 71  240/  9/ 10 1011.8S
MISSION BAY BUOY              70                N/A     2/240/11
SAN DIEGO BAY                 73              1012.4S
POINT LOMA SOUTH              71                N/A     2/250/11

$$




USA.gov is the U.S. government's official web portal to all federal, state and local government web resources and services.